Lexington Weather

Lexington, Massachusetts, USA

45°F
4/22/2024 9:33am 
  • Lexington Conditions: Clear
  • Temperature: 44.8°F / 7.1°CWarmer 2.4°F than last hour.
  • Dew Point: 24.8°FDecreased 2.2°Fsince last hour.
  • Relative Humidity: 45%Decreased 9.0% since last hour.
  • Wind: Calm, 10-min avg: Calm, gust: None
  • Barometer: 29.97 inRising 0.02  inHg/hr Rising Slowly
  • Visibility: 10 miles
  • Rain Today: 0.00 in
  •   

Regional Weather Roundup
for Boston, MA

        
000
ASUS41 KBOX 151510
RWRBOX

REGIONAL WEATHER ROUNDUP
NATIONAL WEATHER SERVICE BOSTON/NORTON MA
1100 AM EDT MON APR 15 2024

NOTE:  "FAIR" INDICATES FEW OR NO CLOUDS BELOW 12,000 FEET WITH NO 
SIGNIFICANT WEATHER AND/OR OBSTRUCTIONS TO VISIBILITY.

MAZALL-151600-
EASTERN MASSACHUSETTS
  
CITY           SKY/WX    TMP DP  RH WIND       PRES   REMARKS
BOSTON         MOSUNNY   60  48  64 SW5       29.80F                  
BEVERLY        MOSUNNY   61  48  62 VRB6      29.78F                  
LAWRENCE       SUNNY     60  47  61 SW9       29.81S                  
BEDFORD        MOSUNNY   60  48  64 SW5       29.79S                  
NORWOOD        CLOUDY    62  46  55 W5        29.81F                  
MARSHFIELD     PTSUNNY   63  46  55 SW6       29.80F                  
PLYMOUTH       MOSUNNY   63  46  54 CALM      29.80F                  
TAUNTON        MOSUNNY   64  46  52 VRB3      29.81S                  
NEW BEDFORD    PTSUNNY   63  48  58 VRB3      29.81F                  
$$

MAZALL-151600-
CAPE COD AND THE ISLANDS
  
CITY           SKY/WX    TMP DP  RH WIND       PRES   REMARKS
FALMOUTH       MOSUNNY   61  46  59 CALM      29.82F VSB 1            
HYANNIS        PTSUNNY   61  47  59 W5        29.80S                  
CHATHAM        PTSUNNY   63  48  58 S8        29.82S                  
PROVINCETOWN   MOSUNNY   58  48  69 SW7       29.82F                  
NANTUCKET      CLOUDY    63  50  62 NW6       29.82S                  
MARTHAS VNYRD  CLOUDY    64  48  56 VRB7      29.81S                  
$$
 
MAZALL-151600-
CENTRAL AND WESTERN MASSACHUSETTS
  
CITY           SKY/WX    TMP DP  RH WIND       PRES   REMARKS
WORCESTER      MOSUNNY   61  42  49 W12       29.80S                  
FITCHBURG      SUNNY     63  43  48 W9        29.80S                  
ORANGE         MOSUNNY   59  48  67 VRB5      29.81F                  
SPRINGFIELD    MOSUNNY   61  47  59 CALM      29.78F                  
WESTFIELD      SUNNY     62  48  60 S5        29.80F                  
NORTH ADAMS    PTSUNNY   59  49  69 NW7       29.81R                  
PITTSFIELD     MOSUNNY   58  47  66 W7        29.80S                  
$$
 
RIZALL-151600-
RHODE ISLAND
  
CITY           SKY/WX    TMP DP  RH WIND       PRES   REMARKS
PROVIDENCE     MOSUNNY   62  49  62 SE7       29.82F                  
NEWPORT        CLOUDY    59  47  64 CALM      29.82S                  
BLOCK ISLAND   MOSUNNY   60  48  64 NW9       29.84R                  
SMITHFIELD     PTSUNNY   64  46  52 W7        29.82S                  
WESTERLY       PTSUNNY   63  50  62 CALM      29.82S                  
$$
 
CTZALL-151600-
CONNECTICUT
  
CITY           SKY/WX    TMP DP  RH WIND       PRES   REMARKS
BRADLEY INTL   MOSUNNY   66  49  54 SE8       29.81F                  
HARTFORD       SUNNY     62  51  67 CALM      29.81F                  
PLAINVILLE     FAIR      66  53  61 SW6       29.80F                  
BRIDGEPORT     SUNNY     61  52  72 S10       29.82S                  
DANBURY        SUNNY     70  41  34 VRB7G18   29.83S                  
GROTON         MOSUNNY   66  52  60 NE3       29.81F                  
NEW HAVEN      SUNNY     64  53  67 S7        29.82S                  
CHESTER        SUNNY     70  50  49 VRB7G15   29.82S                  
MERIDEN        SUNNY     67  49  52 CALM      29.82S                  
WILLIMANTIC    SUNNY     62  49  62 CALM      29.82S                  
OXFORD         SUNNY     65  49  56 W10       29.84R                  
$$

MEZ002-015-021-024-NHZ003-005-008-011-012-014-VTZ005-008-151600-
NORTHERN NEW ENGLAND
  
CITY           SKY/WX    TMP DP  RH WIND       PRES   REMARKS
PORTLAND ME    MOSUNNY   59  44  57 W8        29.76                   
BANGOR ME      PTSUNNY   55  40  56 W9        29.74F                  
CONCORD NH     SUNNY     58  46  64 CALM      29.78S                  
MANCHESTER NH  MOSUNNY   60  47  61 SE5       29.77S                  
NASHUA NH      MOSUNNY   61  48  62 VRB5      29.79F                  
PORTSMOUTH NH  MOSUNNY   61  45  55 SW6       29.77S                  
JAFFREY NH     MOSUNNY   59  43  55 VRB3      29.79F                  
KEENE NH       SUNNY     54  49  83 CALM      29.80F                  
BURLINGTON VT  LGT RAIN  46  43  89 N6        29.83R FOG              
MT. WASHINGTON LGTSLEET  28  28 100 W28         N/A  VSB 0   WCI  13  
$$

NYZ052-076-151600-
EASTERN NEW YORK
  
CITY           SKY/WX    TMP DP  RH WIND       PRES   REMARKS
ALBANY         PTSUNNY   57  48  72 CALM      29.84S                  
NEW YORK CITY  MOSUNNY   71  42  35 NW10      29.82S                  
$$
 
ANZALL-151600-
MARINE OBSERVATIONS
  
STATION/POSITION TIME  TEMP    WIND        PRES    VSBY  WAVE
                       AIR SEA DIR/SP/G                  HT/PER
                 (UTC) (F)     (DEG/KT/KT) (MB)    (MI)  (FT/S)
BOSTON BUOY      1450   47     130/  4/  4 1009.2F         3/10
BUZZARDS BAY     1400   49     300/  8/  8 1010.3R
NANTUCKET SOUND  1450   50 45  290/  6/  8 1009.3S         1
MASS BAY-STELLWA 1304   48 44  230/  8/  8 1009.0R  1 7/8  4/11
ISLE OF SHOALS   1400   48     190/  4/  5 1008.1F
S OF BLOCK IS    1426   68 74  320/ 16/ 23 1010.6
$$

......................KEY.........................
  SKY/WX - SKY CONDITION/PRESENT WEATHER
  TMP    - TEMPERATURE IN FAHRENHEIT
  DWPT   - DEWPOINT IN FAHRENHEIT
  RH     - RELATIVE HUMIDITY IN PERCENT
  WIND   - DIRECTION AND SPEED IN MPH
  PRES   - MEAN SEA LEVEL PRESSURE IN INCHES OF HG
  WCI    - WIND CHILL INDEX
  VSB    - VISIBILITY IN MILES
  HX     - HEAT INDEX
  TC     - TEMPERATURE IN CELSIUS
  VRB    - VARIABLE WIND DIRECTION
  N/A    - NOT AVAILABLE
  
      

Other recent Regional Weather Roundups

Mon Apr 22, 9:10am EDT

Mon Apr 22, 8:10am EDT

Mon Apr 22, 7:10am EDT

Mon Apr 22, 6:10am EDT

Mon Apr 22, 5:10am EDT

Mon Apr 22, 4:10am EDT

Mon Apr 22, 3:10am EDT

Mon Apr 22, 2:10am EDT

Mon Apr 22, 1:10am EDT

Mon Apr 22, 12:10am EDT

Sun Apr 21, 11:10pm EDT

Sun Apr 21, 10:10pm EDT

Sun Apr 21, 9:10pm EDT

Sun Apr 21, 8:10pm EDT

Sun Apr 21, 7:10pm EDT

Sun Apr 21, 6:10pm EDT

Sun Apr 21, 5:10pm EDT

Sun Apr 21, 4:10pm EDT

Sun Apr 21, 3:10pm EDT

Sun Apr 21, 2:10pm EDT

Sun Apr 21, 1:10pm EDT

Sun Apr 21, 12:10pm EDT

Sun Apr 21, 11:10am EDT

Sun Apr 21, 10:10am EDT

Sun Apr 21, 9:10am EDT

Sun Apr 21, 8:10am EDT

Sun Apr 21, 7:10am EDT

Sun Apr 21, 6:10am EDT

Sun Apr 21, 5:10am EDT

Sun Apr 21, 4:10am EDT

Sun Apr 21, 3:10am EDT

Sun Apr 21, 2:10am EDT

Sun Apr 21, 1:10am EDT

Sun Apr 21, 12:10am EDT

Sat Apr 20, 11:10pm EDT

Sat Apr 20, 10:10pm EDT

Sat Apr 20, 9:10pm EDT

Sat Apr 20, 8:10pm EDT

Sat Apr 20, 7:10pm EDT

Sat Apr 20, 6:10pm EDT

Sat Apr 20, 5:10pm EDT

Sat Apr 20, 4:10pm EDT

Sat Apr 20, 3:10pm EDT

Sat Apr 20, 2:10pm EDT

Sat Apr 20, 1:10pm EDT

Sat Apr 20, 12:10pm EDT

Sat Apr 20, 11:10am EDT

Sat Apr 20, 10:10am EDT

Sat Apr 20, 9:10am EDT

Sat Apr 20, 8:10am EDT

Sat Apr 20, 7:10am EDT

Sat Apr 20, 6:10am EDT

Sat Apr 20, 5:10am EDT

Sat Apr 20, 4:10am EDT

Sat Apr 20, 3:10am EDT

Sat Apr 20, 2:10am EDT

Sat Apr 20, 1:10am EDT

Sat Apr 20, 12:10am EDT

Fri Apr 19, 11:10pm EDT

Fri Apr 19, 10:10pm EDT

Fri Apr 19, 9:10pm EDT

Fri Apr 19, 8:10pm EDT

Fri Apr 19, 7:10pm EDT

Fri Apr 19, 6:10pm EDT

Fri Apr 19, 5:10pm EDT

Fri Apr 19, 4:10pm EDT

Fri Apr 19, 3:10pm EDT

Fri Apr 19, 2:10pm EDT

Fri Apr 19, 1:10pm EDT

Fri Apr 19, 12:10pm EDT

Fri Apr 19, 11:10am EDT

Fri Apr 19, 10:10am EDT

Fri Apr 19, 9:10am EDT

Fri Apr 19, 8:10am EDT

Fri Apr 19, 7:10am EDT

Fri Apr 19, 6:10am EDT

Fri Apr 19, 5:10am EDT

Fri Apr 19, 4:10am EDT

Fri Apr 19, 3:10am EDT

Fri Apr 19, 2:10am EDT

Fri Apr 19, 1:10am EDT

Fri Apr 19, 12:10am EDT

Thu Apr 18, 11:10pm EDT

Thu Apr 18, 10:10pm EDT

Thu Apr 18, 9:10pm EDT

Thu Apr 18, 8:10pm EDT

Thu Apr 18, 7:10pm EDT

Thu Apr 18, 6:10pm EDT

Thu Apr 18, 5:10pm EDT

Thu Apr 18, 4:10pm EDT

Thu Apr 18, 3:10pm EDT

Thu Apr 18, 2:10pm EDT

Thu Apr 18, 1:10pm EDT

Thu Apr 18, 12:10pm EDT

Thu Apr 18, 11:10am EDT

Thu Apr 18, 10:10am EDT

Thu Apr 18, 9:10am EDT

Thu Apr 18, 8:10am EDT

Thu Apr 18, 7:10am EDT

Thu Apr 18, 6:10am EDT

Thu Apr 18, 5:10am EDT

Thu Apr 18, 4:10am EDT

Thu Apr 18, 3:10am EDT

Thu Apr 18, 2:10am EDT

Thu Apr 18, 1:10am EDT

Thu Apr 18, 12:10am EDT

Wed Apr 17, 11:10pm EDT

Wed Apr 17, 10:10pm EDT

Wed Apr 17, 9:10pm EDT

Wed Apr 17, 8:10pm EDT

Wed Apr 17, 7:10pm EDT

Wed Apr 17, 6:10pm EDT

Wed Apr 17, 5:10pm EDT

Wed Apr 17, 4:10pm EDT

Wed Apr 17, 3:10pm EDT

Wed Apr 17, 2:10pm EDT

Wed Apr 17, 1:10pm EDT

Wed Apr 17, 12:10pm EDT

Wed Apr 17, 11:10am EDT

Wed Apr 17, 10:10am EDT

Wed Apr 17, 9:10am EDT

Wed Apr 17, 8:10am EDT

Wed Apr 17, 7:10am EDT

Wed Apr 17, 6:10am EDT

Wed Apr 17, 5:10am EDT

Wed Apr 17, 4:10am EDT

Wed Apr 17, 3:10am EDT

Wed Apr 17, 2:10am EDT

Wed Apr 17, 1:10am EDT

Wed Apr 17, 12:10am EDT

Tue Apr 16, 11:10pm EDT

Tue Apr 16, 10:10pm EDT

Tue Apr 16, 9:10pm EDT

Tue Apr 16, 8:10pm EDT

Tue Apr 16, 7:10pm EDT

Tue Apr 16, 6:10pm EDT

Tue Apr 16, 5:10pm EDT

Tue Apr 16, 4:10pm EDT

Tue Apr 16, 3:10pm EDT

Tue Apr 16, 2:10pm EDT

Tue Apr 16, 1:10pm EDT

Tue Apr 16, 12:10pm EDT

Tue Apr 16, 11:10am EDT

Tue Apr 16, 10:10am EDT

Tue Apr 16, 9:10am EDT

Tue Apr 16, 8:10am EDT

Tue Apr 16, 7:10am EDT

Tue Apr 16, 6:10am EDT

Tue Apr 16, 5:10am EDT

Tue Apr 16, 4:10am EDT

Tue Apr 16, 3:10am EDT

Tue Apr 16, 2:10am EDT

Tue Apr 16, 1:10am EDT

Tue Apr 16, 12:10am EDT

Mon Apr 15, 11:10pm EDT

Mon Apr 15, 10:10pm EDT

Mon Apr 15, 9:10pm EDT

Mon Apr 15, 8:10pm EDT

Mon Apr 15, 7:10pm EDT

Mon Apr 15, 6:10pm EDT

Mon Apr 15, 5:10pm EDT

Mon Apr 15, 4:10pm EDT

Mon Apr 15, 3:10pm EDT

Mon Apr 15, 2:10pm EDT

Mon Apr 15, 1:10pm EDT

Mon Apr 15, 12:10pm EDT

Mon Apr 15, 10:10am EDT